Regional Weather Roundup
Issued by NWS Wakefield, VA

Home | Current Version | Previous Version | Text Only | Print | Product List | Glossary Off
Versions: 1 2 3 4 5 6 7 8 9 10 11 12 13 14 15 16 17 18 19 20 21 22 23 24 25 26 27 28

000
ASUS41 KAKQ 251215
RWRAKQ

REGIONAL WEATHER ROUNDUP
NATIONAL WEATHER SERVICE WAKEFIELD VA
800 AM EDT SAT MAR 25 2017

Note: "fair" indicates few or no clouds below 12,000 feet with no
significant weather and/or obstructions to visibility. * = Denotes
station may not report precipitation (e.g., rain,snow,etc.),
thunder or fog.

VAZ042-051-052>054-056-251300-
NORTHERN VIRGINIA

CITY           SKY/WX    TMP DP  RH WIND       PRES   REMARKS
WASH NATIONAL  CLOUDY    56  49  77 S7        30.20R
DULLES         MOCLDY    56  46  69 S7        30.19R
FORT BELVOIR   MOSUNNY   52  45  77 CALM      30.19R
QUANTICO       CLOUDY    55  48  77 S8        30.21R
FREDERICKSBRG* CLOUDY    60  49  68 SW7       30.20R
STAFFORD*      CLOUDY    59  48  67 SW7       30.24R
WARRENTON      CLOUDY    58  45  61 CALM      30.20R
CULPEPER*      CLOUDY    54  49  84 CALM      30.21R
MANASSAS*      CLOUDY    52  47  83 S3        30.20R
LEESBURG*      PTCLDY    54  50  87 SW6       30.19R
WINCHESTER     CLOUDY    57  45  62 SW7       30.18R
FRONT ROYAL*     N/A    N/A N/A N/A MISG        N/A
LURAY*         PTSUNNY   57  50  77 CALM      30.20R
$$

VAZ048-049-060>072-079>083-251300-
CENTRAL AND SOUTH CENTRAL VIRGINIA

CITY           SKY/WX    TMP DP  RH WIND       PRES   REMARKS
RICHMOND       CLOUDY    57  49  74 SW6       30.26R
CHESTERFIELD*  FAIR     N/A N/A N/A SW7       30.27R
PETERSBURG*    PTCLDY    55  48  77 S5        30.28R
HANOVER        MOCLDY    59  46  62 SW8       30.26R
TAPPAHANNOCK*  PTSUNNY   59  37  44 S9G16     30.24S
QUINTON*       FAIR      57  49  76 SW8       30.26R
CHARLOTTSVILLE CLOUDY    57  48  72 S7        30.21R
GORDONSVILLE*  CLOUDY    56  48  75 SW5       30.21R
ORANGE*        MOCLDY    55  46  71 S7        30.23R
LOUISA*        CLOUDY    61  52  72 SW7       30.22R
BUMPASS*       FAIR      58  48  69 SW5       30.23R
FARMVILLE*     CLOUDY    59  49  70 SW7       30.26R
CREWE*         FAIR      58  50  73 SW6       30.27R
FORT PICKETT*  FAIR      56  46  67 SW9       30.28R
CHASE CITY*    FAIR      58  49  73 SW3       30.30R
CLARKSVILLE*   FAIR      55  52  88 SW6       30.30S
SOUTH HILL*    CLEAR     56  50  82 SW7       30.36R
LAWRENCEVILLE* FAIR      55  49  82 SW9       30.30R
EMPORIA*       SUNNY     54  50  87 S5        30.32S
$$

VAZ088>098-251300-
SOUTHEAST VIRGINIA

CITY           SKY/WX    TMP DP  RH WIND       PRES   REMARKS
NORFOLK        SUNNY     58  49  72 SW16      30.29R
VIRGINIA BEACH PTSUNNY   58  49  72 SW14      30.29R
NORFOLK NAVAL  SUNNY     59  49  69 SW13G23   30.31R
WEST POINT*    MOSUNNY   58  48  69 S6        30.28R
SALUDA*        FAIR      59  50  71 SW6       30.26R
NEWPORT NEWS   SUNNY     60  50  69 SW16G25   30.29R
LANGLEY AFB    SUNNY     59  51  74 SW16      30.28R
FORT EUSTIS    SUNNY     59  50  71 SW8       30.27R
WILLIAMSBURG*  MOSUNNY   61  52  72 SW7G21    30.29R
HR EXEC AP*    FAIR      57  48  72 SW10      30.29S
FRANKLIN*      SUNNY     56  49  79 SW5       30.32R
US460-WAKEFLD  MOSUNNY   56  50  80 SW7       30.29R
$$

VAZ020-022-025-037-045-251300-
WEST CENTRAL AND SOUTHWEST VIRGINIA

CITY           SKY/WX    TMP DP  RH WIND       PRES   REMARKS
STAUNTON*      CLOUDY    56  46  70 SE5       30.24R
WAYNESBORO*    CLOUDY    58  48  68 W6        30.23R
HOT SPRINGS VA CLOUDY    52  41  66 W17       30.28R
LYNCHBURG      CLOUDY    53  46  77 S7        30.28R
DANVILLE       PTCLDY    55  49  80 S5        30.31R
SOUTH BOSTON*  FAIR      58  49  70 S7        30.30S
MARTINSVILLE   CLOUDY    50  45  85 CALM      30.33R
ROANOKE        MOCLDY    56  45  66 CALM      30.28R
BLACKSBURG     PTCLDY    47  45  90 CALM      30.31S
DUBLIN*        MOCLDY    50  46  88 CALM      30.29S
MARION*        MOCLDY    46  45  96 CALM      30.32R FOG
HILLSVILLE*    CLOUDY    51  46  82 CALM      30.28S
RICHLANDS*     CLOUDY    54  45  71 CALM      30.27R
WISE*          CLOUDY    55  43  62 CALM      30.27S
ABINGDON*      CLOUDY    52  47  82 E5        30.27S
$$

MDZ021>025-VAZ099-100-251300-
SOUTHERN MARYLAND AND THE DELMARVA PENINSULA

CITY           SKY/WX    TMP DP  RH WIND       PRES   REMARKS
PATUXENT RIVER CLOUDY    59  50  72 SW13G21   30.20R
BAY BRIDGE APT PTSUNNY   59  48  67 SW7       30.18S
LEONARDTOWN    CLOUDY    59  46  63 SW9G18    30.22R
DOVER          CLOUDY    56  51  83 SW13      30.17R
GEORGETOWN     CLOUDY    59  47  64 SW9       30.21R
EASTON         CLOUDY    57  48  72 SW8       30.23R
CAMBRIDGE      SUNNY     57  48  72 VRB3      30.21R
SALISBURY      CLOUDY    58  49  72 SW8       30.22R
OCEAN CITY     MOSUNNY   58  48  69 SW12      30.22R
WALLOPS ISLAND SUNNY     61  50  67 SW10G23   30.25R
ACCOMACK*      MOSUNNY   60  49  68 SW13G20   30.26R
$$

NCZ012>017-030>032-251300-
NORTH CENTRAL AND EASTERN NORTH CAROLINA

CITY           SKY/WX    TMP DP  RH WIND       PRES   REMARKS
ROANOKE RAPIDS FAIR      52  50  93 S6        30.32S
RALEIGH        MOCLDY    54  49  83 SW5       30.34R
ELIZABETH CITY MOSUNNY   55  50  83 SW8       30.33R
AHOSKIE*         N/A     52  49  89 CALM      30.33R
EDENTON*       MOSUNNY   57  50  78 SW3       30.35R
CURRITUCK*     MOSUNNY   56  49  77 SW12      30.33R
KILL DEVIL HLS NOT AVBL
MANTEO         MOSUNNY   53  50  90 SW3       30.35R
CAPE HATTERAS  SUNNY     63  52  67 W7        30.35R
TARBORO*       NOT AVBL
GOLDSBORO      PTCLDY    55  55 100 SW3       30.33R
WASHINGTON     SUNNY     54  50  86 CALM      30.34R
GREENVILLE     SUNNY     55  52  88 W3        30.34R
NEW BERN       MOSUNNY   53  51  93 SW3       30.35R
WILMINGTON     MOCLDY    53  51  93 CALM      30.34R
$$

VAZ048-251300-
ELSEWHERE

CITY           SKY/WX    TMP DP  RH WIND       PRES   REMARKS
HARRISBURG PA  CLOUDY    46  42  86 CALM      30.14R
BALTIMORE      CLOUDY    59  48  67 SW6       30.17R
ANNAPOLIS      PTSUNNY   61  48  62 W7        30.18R
ANDREWS AFB    CLOUDY    58  47  66 SW8       30.19R
PHILADELPHIA   CLOUDY    53  46  77 SW9       30.16R
HENDERSON NC   CLEAR     52  47  84 SW6       30.32R
GREENSBORO     CLOUDY    53  49  86 SW6       30.32R
ROCKY MOUNT    CLEAR     50  49  96 S3        30.34R
$$

VAZ100-251300-
MARINE

STATION/POSITION TIME  TEMP    WIND        PRES    WAVE   SWELL
                       AIR SEA DIR/SP/G            HT/PER HT/PER
                 (UTC) (F)     (DEG/KT/KT) (MB)    (FT/S) (FT/S)
CAPE MAY NJ      1148   52 44  200/  6/  9 1021.8R
LEWES DE         1148   60 44  250/ 13/ 20 1022.2R
OCEAN-CITY-INLET 1148   48 44  220/ 11/ 11 1023.7R
WACHAPREAGUE VA  1148   60 48  240/  6/  9 1024.4R
THOMAS POINT MD  1200   58 44  230/  9/ 11   N/A
GOOSES REEF MD   1200   54 44  230/ 12/ 16 1022.8    1/ 3
COVE POINT MD    1148   60     270/ 22/ 28 1022.7R
SOLOMONS ISLAND  1148   59 46  270/  5/  9   N/A
BISHOPS HEAD MD  1148   49 47  140/  6/  7 1023.6R
PINEY POINT MD   1142          240/  6/  8   N/A
POTOMAC MD       1200   53 45  250/ 10/ 12 1022.6    1/ 2
CAMBRIDGE MD     1148   56 44  180/  5/  7 1022.0R
LEWISETTA VA     1148   59 48  250/ 12/ 15 1022.9R
RAPPAHANNOCK LGT 1142          190/ 15/ 16 1025.3R
STINGRAY PT      1150   56     240/ 14/ 17 1024.8R
YORK RVR RNG VA  1148   58     250/ 18/ 23 1024.3R
YORKTOWN VA      1148   60 48  240/ 12/ 18 1024.7R
JAMESTOWN VA     1200   58 51  220/ 12/ 16   N/A
DOMINION TERM VA 1148   54     220/ 11/ 12 1025.9R
KIPTOPEKE VA     1142      46  220/  8/ 10   N/A
CHES BAY BRIDGE  1148   56 47  230/ 16/ 17 1025.4R
CAPE HENRY VA    1148   58     220/  7/ 14   N/A
WILLOUBY STN VA  1148   56     230/ 18/ 19 1026.2R
S CRANEY ISL VA  1148   58     220/  8/ 14 1025.7R
CAPE HENRY BUOY  1142      48                N/A     2/ 4
CAPE CHARLES BUO 1151      46                N/A     2/ 3
OFFSHORE WE BUOY 1151      47                N/A     2/ 5
64NM E OF VA BCH 1150   53 51  220/ 10/ 12 1026.8R   3/ 5   2/ 5
DUCK PIER NC     1148   57 47  230/ 10/ 13 1026.5R
44100 DUCK FRF   1135      47                N/A     2/ 4
44056 DUCK FRF   1130      48                N/A     2/11
OREGON INLET NC  1142   54 54  220/  9/ 10 1027.3R
HATTERAS NC      1148   61 55  250/  8/ 10 1027.2R
DIAMOND SHLS NC  1150   69 76  220/ 14/ 17 1027.1R   4/ 5   2/ 9
CAPE LOOKOUT NC  1100   64     230/  6/  7 1026.5F
$$




USA.gov is the U.S. government's official web portal to all federal, state and local government web resources and services.